Temp
14 14 16 17 17 18 18 18 19 18 18 18 17 16 16 15 14 14 13 13 13 13 12 12 12 12 11 11 11 11 11 11 10 9 9 9 9 10 11 11 11 11 12
14 14 15 16 17 17 17 18 18 18 18 17 16 15 14 13 13 12 12 12 12 12 12 11 11 11 11 11 11 10 10 10 10 7 8 9 9 10 10 10 10 10 11
14 13 15 15 15 16 17 17 17 17 16 16 15 14 13 12 12 12 12 11 11 11 11 11 11 10 10 10 10 9 9 8 9 9 7 8 9 7 8 9 9 10 10
13 14 14 14 15 14 15 15 15 15 14 14 14 13 13 12 11 11 11 11 11 11 11 11 10 10 10 9 9 9 9 8 7 8 7 7 6 6 6 8 7 7 8
13 13 13 13 13 13 14 14 14 14 13 13 12 12 12 11 11 11 11 11 11 11 10 10 10 9 9 8 8 8 8 7 6 5 5 5 5 4 4 5 6 5 6
13 12 12 12 12 12 13 13 13 12 12 12 12 12 12 11 11 11 11 11 11 11 10 10 9 9 8 8 7 7 6 6 5 5 4 2 2 3 3 3 3 3 4
12 12 12 12 12 12 12 12 12 12 11 11 11 11 11 10 10 10 10 10 10 10 9 9 8 8 7 7 6 6 6 5 5 4 3 2 1 1 1 2 2 3 3
12 11 12 11 11 11 11 11 11 11 11 11 10 10 10 10 9 9 9 8 8 8 7 7 7 7 6 6 6 5 5 4 4 3 2 1 2 1 0 1 1 1 2
11 11 11 11 11 10 11 10 10 11 10 10 10 9 9 9 9 8 8 8 7 7 6 6 6 5 5 5 4 4 4 4 3 2 2 1 1 -0 -1 0 0 -0 0
11 11 11 10 10 10 10 10 10 10 10 9 9 8 8 8 8 7 7 6 6 5 4 4 4 4 4 4 4 3 3 3 2 1 1 -0 -1 -2 -2 -1 -1 -1 -2
11 11 10 9 9 9 9 9 9 9 9 8 8 7 7 7 6 6 5 5 4 4 3 3 3 3 3 3 3 2 2 1 0 -0 -2 -3 -3 -3 -2 -3 -3 -3 -3
11 10 10 9 9 9 8 8 8 8 8 7 7 6 6 6 5 5 4 4 3 3 3 3 3 3 2 2 1 1 0 -1 -1 -3 -4 -4 -4 -4 -4 -4 -4 -5 -4
11 10 9 9 8 8 8 8 7 7 6 6 6 6 5 5 4 4 3 3 3 3 3 2 2 1 1 1 0 -0 -1 -2 -3 -4 -4 -4 -5 -5 -5 -5 -5 -5 -5
11 10 8 8 8 7 7 7 6 6 5 6 5 5 5 4 3 2 2 2 2 2 2 1 1 1 0 -0 -1 -2 -3 -4 -4 -5 -5 -5 -6 -6 -6 -5 -5 -5 -5
10 9 9 8 7 7 6 6 5 5 5 5 4 4 3 2 2 2 1 2 2 1 1 0 0 -0 -1 -2 -3 -4 -4 -5 -5 -6 -6 -6 -6 -6 -6 -6 -6 -6 -5
10 9 8 8 7 6 6 5 5 5 5 4 3 2 2 2 1 1 1 1 1 0 0 -0 -1 -1 -2 -3 -3 -4 -6 -6 -7 -7 -7 -7 -7 -7 -6 -6 -6 -5 -6
10 9 8 7 6 5 5 5 5 4 3 3 2 2 1 1 1 1 1 0 0 -0 -1 -2 -2 -3 -3 -4 -5 -7 -7 -7 -7 -7 -7 -7 -7 -7 -7 -7 -6 -6 -7
11 9 7 6 5 5 4 4 4 3 3 2 1 1 0 1 1 0 0 -0 -1 -2 -2 -3 -4 -4 -4 -5 -7 -8 -7 -8 -7 -8 -7 -7 -7 -7 -7 -7 -6 -7 -6
10 8 7 5 5 4 4 3 3 2 2 1 1 0 0 0 -0 -1 -1 -1 -2 -3 -3 -4 -4 -5 -5 -6 -8 -8 -8 -8 -8 -8 -8 -7 -7 -7 -7 -7 -8 -7 -8
9 7 5 5 4 3 3 3 2 2 1 0 0 -0 -1 -1 -1 -2 -2 -3 -3 -4 -4 -4 -5 -6 -7 -7 -9 -8 -8 -8 -8 -8 -8 -8 -7 -7 -7 -8 -8 -9 -9
7 5 4 4 3 3 2 2 1 1 0 0 -0 -1 -2 -2 -2 -2 -3 -3 -4 -4 -5 -5 -7 -7 -8 -9 -9 -8 -8 -8 -8 -8 -8 -8 -8 -7 -8 -8 -9 -9 -8
5 4 3 3 2 2 2 1 0 0 0 -0 -1 -2 -2 -2 -3 -3 -3 -4 -5 -5 -6 -7 -7 -8 -9 -9 -9 -9 -8 -8 -8 -8 -8 -8 -7 -8 -9 -9 -9 -9 -10
4 3 2 2 1 1 0 -0 0 -0 -1 -1 -1 -2 -2 -3 -3 -4 -4 -5 -6 -7 -7 -8 -10 -10 -9 -9 -10 -9 -9 -8 -8 -8 -9 -9 -9 -9 -10 -10 -10 -10 -11
3 2 2 1 1 0 0 -0 -1 -1 -1 -2 -2 -2 -3 -3 -4 -5 -5 -6 -7 -8 -9 -10 -10 -10 -9 -9 -9 -9 -9 -9 -9 -9 -9 -10 -10 -10 -11 -11 -11 -11 -12
2 1 1 1 0 0 -1 -1 -2 -2 -2 -2 -3 -3 -3 -4 -5 -6 -7 -8 -8 -9 -10 -10 -10 -10 -10 -9 -9 -9 -9 -9 -9 -9 -10 -11 -11 -11 -11 -12 -12 -12 -12
2 1 1 1 -0 -1 -2 -2 -2 -2 -3 -3 -3 -4 -5 -5 -6 -7 -7 -8 -9 -10 -10 -10 -10 -10 -10 -9 -9 -9 -9 -9 -10 -11 -12 -12 -12 -12 -12 -12 -12 -12 -12
Height
1492 1492 1490 1490 1490 1489 1488 1487 1487 1487 1487 1487 1488 1490 1490 1491 1492 1493 1493 1493 1492 1491 1490 1488 1486 1484 1481 1478 1474 1470 1466 1463 1458 1452 1446 1442 1439 1436 1435 1432 1429 1427 1425
1492 1492 1492 1491 1491 1491 1490 1488 1488 1489 1488 1488 1488 1489 1490 1491 1492 1492 1492 1491 1491 1490 1489 1487 1484 1482 1479 1476 1472 1467 1462 1460 1457 1452 1445 1436 1433 1431 1429 1426 1423 1419 1417
1490 1492 1492 1491 1494 1493 1491 1490 1490 1489 1489 1490 1491 1491 1491 1492 1493 1492 1492 1491 1491 1490 1488 1486 1483 1480 1476 1472 1468 1464 1460 1455 1453 1451 1448 1437 1429 1422 1422 1419 1415 1412 1408
1489 1491 1491 1493 1494 1494 1494 1493 1492 1491 1492 1493 1494 1494 1493 1493 1493 1493 1492 1492 1490 1489 1486 1484 1480 1477 1473 1469 1465 1461 1457 1453 1448 1445 1445 1441 1434 1424 1404 1411 1408 1406 1402
1487 1490 1491 1494 1494 1496 1496 1495 1494 1493 1493 1495 1495 1494 1494 1494 1494 1494 1493 1491 1489 1486 1483 1480 1476 1472 1468 1464 1460 1456 1453 1449 1444 1440 1435 1431 1427 1424 1418 1393 1397 1397 1394
1486 1490 1492 1494 1495 1496 1496 1497 1496 1495 1495 1495 1496 1495 1495 1494 1494 1492 1490 1488 1485 1482 1479 1475 1471 1467 1463 1459 1455 1451 1447 1443 1439 1435 1431 1427 1423 1419 1415 1406 1392 1387 1382
1484 1489 1491 1494 1495 1496 1497 1497 1497 1496 1496 1496 1495 1494 1494 1493 1491 1490 1487 1485 1482 1478 1475 1471 1467 1463 1459 1455 1451 1447 1443 1439 1434 1430 1426 1423 1418 1414 1409 1402 1391 1382 1375
1483 1487 1491 1493 1495 1496 1496 1496 1497 1496 1495 1494 1494 1494 1493 1491 1490 1488 1485 1482 1479 1475 1471 1468 1464 1460 1456 1452 1448 1443 1438 1433 1429 1424 1421 1417 1412 1408 1403 1397 1390 1377 1369
1481 1486 1489 1492 1494 1495 1495 1496 1496 1495 1494 1494 1494 1493 1492 1490 1488 1486 1483 1479 1476 1473 1469 1465 1462 1458 1453 1448 1443 1438 1434 1429 1424 1419 1414 1410 1405 1400 1396 1391 1386 1380 1369
1480 1484 1488 1491 1492 1494 1494 1495 1495 1493 1493 1493 1493 1491 1490 1488 1486 1483 1479 1476 1473 1470 1466 1462 1457 1453 1448 1444 1439 1434 1429 1423 1418 1413 1407 1403 1398 1394 1389 1384 1379 1375 1370
1479 1482 1486 1489 1490 1491 1492 1493 1493 1493 1492 1492 1491 1489 1487 1484 1482 1479 1476 1473 1469 1465 1461 1457 1452 1449 1444 1439 1434 1428 1422 1416 1410 1406 1400 1396 1392 1385 1380 1375 1371 1365 1361
1478 1481 1483 1486 1488 1489 1490 1491 1491 1491 1490 1490 1488 1486 1484 1481 1479 1476 1472 1468 1465 1461 1457 1453 1449 1444 1439 1433 1428 1421 1415 1409 1403 1399 1394 1389 1383 1376 1372 1367 1361 1356 1351
1477 1478 1480 1483 1485 1487 1488 1489 1489 1489 1488 1487 1485 1483 1480 1478 1475 1471 1468 1464 1461 1457 1453 1449 1444 1438 1434 1428 1422 1415 1409 1404 1399 1393 1387 1380 1375 1370 1365 1360 1353 1348 1343
1473 1475 1478 1480 1483 1485 1486 1486 1487 1486 1485 1483 1482 1480 1477 1474 1470 1467 1464 1460 1456 1452 1448 1444 1439 1434 1428 1422 1415 1409 1403 1397 1391 1386 1380 1375 1370 1364 1358 1352 1347 1341 1334
1469 1472 1474 1477 1480 1482 1483 1484 1484 1484 1482 1480 1479 1476 1473 1469 1467 1464 1460 1456 1452 1447 1443 1438 1433 1428 1422 1416 1409 1403 1397 1390 1383 1378 1373 1368 1363 1358 1353 1348 1339 1333 1326
1466 1469 1472 1474 1477 1479 1481 1481 1481 1480 1479 1476 1475 1472 1469 1467 1463 1458 1455 1451 1447 1443 1437 1432 1427 1422 1416 1410 1404 1397 1390 1383 1377 1370 1364 1361 1355 1350 1346 1340 1333 1328 1319
1463 1465 1467 1471 1474 1477 1478 1479 1478 1477 1475 1473 1471 1469 1466 1462 1458 1455 1450 1446 1441 1436 1432 1427 1422 1415 1409 1402 1396 1391 1384 1378 1372 1366 1359 1352 1349 1343 1336 1329 1323 1317 1311
1461 1463 1465 1469 1472 1474 1475 1476 1475 1474 1472 1470 1468 1465 1461 1457 1454 1450 1446 1441 1436 1431 1426 1420 1415 1408 1402 1396 1389 1384 1378 1372 1366 1361 1354 1348 1341 1336 1330 1322 1313 1306 1300
1458 1461 1464 1467 1470 1472 1472 1473 1472 1470 1469 1467 1464 1461 1457 1454 1450 1446 1441 1436 1431 1425 1419 1414 1408 1402 1395 1390 1383 1380 1372 1365 1360 1354 1349 1342 1335 1330 1324 1314 1305 1296 1288
1458 1460 1463 1465 1467 1469 1469 1469 1468 1467 1465 1463 1460 1457 1454 1451 1446 1442 1437 1431 1425 1419 1414 1408 1402 1396 1389 1383 1380 1376 1369 1361 1354 1348 1341 1336 1330 1323 1315 1309 1300 1289 1279
1459 1460 1462 1464 1466 1466 1466 1465 1464 1463 1462 1459 1457 1455 1451 1447 1442 1437 1431 1425 1420 1414 1408 1402 1394 1389 1384 1378 1375 1371 1365 1357 1348 1341 1334 1328 1321 1313 1308 1303 1294 1284 1275
1458 1460 1462 1463 1463 1463 1463 1462 1461 1460 1458 1456 1453 1450 1447 1443 1437 1431 1426 1420 1415 1409 1402 1394 1388 1383 1378 1375 1370 1365 1360 1354 1345 1336 1328 1320 1313 1308 1301 1293 1285 1278 1269
1458 1458 1459 1460 1460 1459 1459 1458 1457 1456 1454 1451 1449 1446 1443 1438 1432 1426 1421 1415 1410 1403 1396 1389 1382 1377 1373 1368 1364 1359 1353 1347 1340 1332 1323 1315 1308 1300 1292 1286 1278 1270 1260
1454 1455 1456 1456 1457 1456 1456 1455 1453 1451 1449 1447 1445 1441 1436 1430 1426 1422 1417 1411 1405 1398 1392 1386 1381 1375 1369 1364 1358 1352 1346 1339 1332 1324 1316 1308 1300 1294 1287 1278 1270 1263 1256
1451 1452 1453 1453 1453 1453 1452 1451 1449 1447 1445 1442 1439 1434 1429 1425 1421 1416 1411 1405 1400 1396 1390 1385 1379 1372 1365 1360 1356 1349 1341 1334 1327 1319 1309 1301 1294 1287 1279 1271 1264 1257 1249
1448 1449 1450 1451 1451 1450 1449 1447 1445 1443 1440 1436 1432 1428 1423 1419 1415 1409 1403 1400 1395 1391 1387 1382 1377 1370 1364 1357 1351 1344 1337 1330 1323 1313 1305 1298 1291 1284 1275 1266 1258 1251 1243
Wind_Speed
11 12 12 12 12 12 13 15 15 16 12 9 7 4 1 2 3 5 7 8 9 10 12 13 14 15 17 19 20 23 25 26 27 30 34 33 35 25 31 26 28 34 39
13 13 14 14 14 16 17 18 18 16 15 12 11 9 8 8 8 7 6 7 8 9 10 12 14 15 17 18 21 23 26 26 25 23 29 20 29 23 23 35 41 37 35
16 14 15 16 15 16 17 17 17 17 17 16 13 11 10 11 9 9 8 9 9 10 12 15 17 19 21 23 25 26 27 29 30 27 19 17 18 38 34 29 33 27 29
17 15 15 15 15 17 15 15 16 16 17 14 13 11 11 10 11 9 9 9 11 14 17 20 22 24 26 27 28 28 29 30 31 31 24 28 30 25 33 25 29 33 27
17 16 15 15 15 13 12 13 13 14 14 12 12 11 11 11 9 8 10 14 18 21 24 26 28 29 30 30 30 30 29 28 28 27 28 29 27 24 26 41 30 34 30
19 17 16 15 14 13 11 11 11 13 12 11 11 11 10 10 11 14 17 22 26 29 31 31 32 31 31 31 31 30 29 28 28 27 27 23 21 22 26 32 41 40 39
22 19 17 15 14 12 10 9 9 11 11 10 10 11 12 13 16 19 23 25 28 31 31 31 30 30 30 29 29 30 29 29 28 27 26 25 25 27 26 28 34 34 38
23 20 17 15 13 12 10 8 8 9 9 9 10 11 13 16 19 22 25 27 28 28 28 28 28 27 27 28 29 30 31 31 29 29 29 31 33 30 25 27 30 35 34
24 21 18 16 14 12 9 7 6 7 7 8 9 11 15 20 23 24 25 26 26 26 25 24 24 24 26 29 31 33 33 33 33 33 32 33 33 28 26 25 25 27 30
24 22 19 18 15 11 8 6 4 3 5 7 9 13 18 20 22 24 24 24 23 22 22 23 24 27 29 31 33 34 35 35 35 32 34 32 29 27 25 28 28 26 25
25 22 20 18 15 12 9 5 2 2 3 6 10 15 19 21 23 23 22 21 22 22 23 25 27 30 32 33 35 36 36 37 36 35 34 28 24 33 36 29 29 31 31
22 21 20 19 16 12 9 6 3 0 3 9 14 18 21 23 22 21 21 21 21 23 25 28 30 32 34 36 37 38 37 36 36 33 28 28 31 36 30 31 29 32 27
20 21 21 19 16 13 10 6 3 1 6 13 17 21 22 21 20 21 21 22 23 25 27 30 32 34 36 37 37 37 38 36 34 32 30 33 32 34 32 31 31 29 33
21 22 21 20 17 14 11 7 3 3 10 16 21 22 23 22 21 21 21 22 25 27 29 31 34 36 37 38 38 38 36 34 34 33 31 32 31 31 34 33 31 34 36
20 22 22 21 18 16 11 7 2 7 13 18 20 20 20 20 20 20 22 24 27 29 32 35 36 37 38 37 37 34 34 34 36 34 34 33 32 31 29 31 37 37 38
16 19 21 21 20 15 10 6 3 9 15 17 18 19 19 19 20 22 25 28 30 33 36 38 38 38 37 36 35 33 33 31 32 35 36 33 34 31 32 35 33 34 38
10 17 21 21 18 13 10 5 6 12 15 16 18 19 18 19 22 25 27 30 34 36 37 37 37 38 38 38 36 30 30 32 32 32 35 38 33 34 37 36 36 39 33
4 13 19 19 16 13 9 6 9 13 15 16 18 17 19 22 24 27 30 33 36 37 38 38 38 40 39 38 34 30 30 34 32 33 33 34 37 36 36 39 39 36 48
5 7 13 15 14 11 7 6 10 14 15 16 17 19 22 24 26 29 32 35 37 38 39 39 40 40 40 36 30 29 33 35 35 33 33 33 37 36 35 36 39 46 46
3 7 13 14 12 9 6 8 11 14 15 15 18 21 23 24 28 31 33 35 37 39 41 42 40 38 38 34 28 30 33 36 37 36 35 35 36 36 31 34 42 43 46
5 10 12 12 9 7 8 11 12 14 15 17 19 20 22 26 30 33 35 36 38 40 41 41 39 37 33 31 29 29 32 34 38 41 39 40 38 28 33 39 40 37 41
8 11 11 10 8 8 9 10 12 14 16 18 19 22 25 28 32 34 36 37 39 40 41 41 39 35 30 31 30 30 29 32 36 39 42 42 35 40 40 40 34 36 35
11 12 11 9 8 8 10 11 14 16 17 20 22 25 28 31 33 35 36 38 38 38 38 37 35 34 37 35 32 30 31 34 36 39 35 39 43 38 38 37 37 33 36
11 10 9 8 8 9 13 13 14 16 19 22 25 28 32 35 34 34 35 36 36 34 32 31 32 36 36 36 36 37 39 37 39 37 44 43 35 30 37 39 37 36 35
9 8 7 8 10 12 11 12 15 18 20 24 27 32 34 34 36 36 35 34 31 25 28 30 31 32 33 35 33 35 38 37 36 43 41 36 31 38 38 39 37 38 38
7 8 8 10 10 9 10 12 15 19 22 27 31 32 33 35 36 37 38 32 28 24 24 24 24 28 28 31 33 34 33 32 38 37 35 34 35 35 39 39 40 41 41
Wind_Direction
103 98 96 92 89 88 83 75 72 68 71 77 88 98 113 14 338 351 340 333 335 334 331 328 326 327 329 329 328 324 324 324 328 323 320 315 313 315 307 310 303 298 300
124 112 107 102 93 86 78 73 68 66 62 60 62 68 68 70 64 60 36 22 12 4 355 346 338 333 330 328 327 329 327 325 330 324 322 315 308 309 307 300 299 298 300
136 124 113 101 95 85 77 72 68 62 59 58 63 71 77 88 89 69 52 33 12 355 344 338 334 332 331 331 330 330 330 327 323 322 318 317 304 310 303 295 298 302 292
139 128 117 109 96 83 78 72 69 66 68 74 81 85 85 74 63 47 29 6 354 349 344 339 336 333 331 329 328 326 323 321 322 319 313 303 304 310 309 300 292 294 291
145 137 129 120 106 98 83 74 70 71 73 67 65 61 58 56 43 24 7 358 353 347 342 339 337 335 334 333 332 330 328 326 323 322 319 315 310 310 305 309 307 300 298
152 148 140 131 121 109 97 85 74 74 70 61 55 47 42 33 14 5 357 353 347 343 339 337 336 335 335 335 334 333 331 329 325 322 320 319 317 312 309 305 307 307 306
161 157 152 145 132 125 110 94 80 79 67 50 42 37 27 15 5 358 351 344 341 338 335 335 336 338 338 339 339 339 336 333 329 324 318 314 311 312 308 305 302 301 303
166 162 159 155 148 138 125 105 87 74 60 44 36 25 14 6 358 351 347 343 339 337 337 338 339 340 340 340 339 339 338 337 333 328 322 317 316 315 308 305 304 306 305
169 169 168 165 159 151 138 121 94 69 49 34 25 11 4 356 351 347 342 338 336 334 334 335 338 341 341 341 341 339 336 333 331 327 325 324 323 321 314 310 305 310 305
173 174 174 170 165 163 155 137 111 67 39 25 11 3 356 352 347 341 337 334 331 332 337 340 342 343 342 339 337 334 332 328 327 325 324 324 322 320 316 306 306 304 304
179 177 175 174 176 174 168 166 140 61 34 12 0 355 352 348 343 337 335 335 336 338 339 342 342 340 338 336 334 332 330 328 327 327 326 320 316 318 320 311 306 304 304
183 183 183 185 183 183 183 183 181 100 6 358 356 352 347 342 338 338 337 337 337 340 342 341 339 338 337 336 333 330 330 328 326 323 321 314 317 319 317 314 310 308 307
191 192 191 191 192 193 194 198 205 304 359 358 355 348 344 339 338 338 337 338 339 341 339 338 338 337 336 334 331 330 327 325 322 319 316 315 318 317 316 315 314 311 313
203 200 196 198 199 200 204 206 216 348 354 355 352 348 343 338 338 337 336 340 341 338 337 338 337 336 335 332 331 329 325 322 320 319 316 316 315 315 316 315 313 313 311
208 206 203 202 204 206 204 202 244 349 351 348 344 343 342 338 332 335 340 340 338 338 338 336 336 336 332 331 330 326 323 321 319 318 317 317 316 315 313 313 312 312 310
206 206 206 208 208 206 203 207 294 336 339 340 337 338 336 331 335 341 339 338 337 336 336 335 334 331 331 330 329 326 322 320 318 319 322 318 320 319 314 314 312 309 309
200 207 209 209 207 205 205 233 308 331 336 335 335 329 330 338 341 338 337 336 335 334 333 333 333 332 333 333 332 325 323 318 320 320 319 320 318 318 319 319 311 310 313
240 219 210 205 203 204 218 272 321 334 333 333 328 331 337 339 338 337 336 335 333 332 333 333 335 333 334 335 332 329 323 322 320 319 319 319 323 320 318 312 314 320 314
282 229 210 205 203 211 240 294 327 332 329 329 334 335 336 336 335 335 335 334 331 332 333 334 334 333 334 335 333 332 327 323 320 320 319 321 321 320 315 318 324 320 314
267 204 197 200 207 222 264 305 320 323 324 331 334 334 333 333 334 334 333 333 332 331 331 331 333 334 334 338 334 332 326 321 321 322 323 322 319 318 317 324 322 314 317
201 195 199 205 215 249 289 309 321 320 326 331 329 330 332 333 332 332 334 332 331 329 329 330 333 335 339 337 332 330 325 323 321 324 323 321 320 316 326 322 318 317 315
212 207 209 216 240 273 300 313 318 322 324 325 329 331 332 332 332 332 332 331 330 329 331 332 332 339 336 330 329 327 324 323 323 321 319 323 320 321 319 321 323 318 316
216 213 221 236 261 287 298 313 317 319 325 327 328 329 330 331 333 333 331 329 331 331 331 333 334 329 329 329 329 327 326 325 323 320 322 318 316 314 316 325 323 323 327
224 228 238 261 284 297 309 307 314 321 323 325 327 329 331 332 332 330 329 329 332 332 332 329 322 323 326 328 332 329 328 326 325 330 323 319 319 316 320 324 327 327 325
224 239 257 279 287 294 298 312 316 319 322 324 327 330 331 330 330 330 331 332 334 330 321 317 319 320 321 324 324 325 324 324 326 324 321 325 327 325 326 326 326 327 329
240 249 267 278 281 287 305 312 316 321 323 326 330 331 329 330 330 329 329 333 336 325 320 317 317 318 317 321 323 323 322 324 324 323 327 329 325 325 325 325 326 328 331